This is the latest recevied weather packets stored in our database for station/object WC4PEM-15. If no packets are shown the sender has not sent any weather packets the latest 1 day(s).
| Time | Temp. | Humidity | Pressure | Rain* | Wind** | Luminosity | Snow |
|---|---|---|---|---|---|---|---|
| 1778031899 | 22.22° C | 70% | 1015.8 hPa | 0 mm | 4.02 m/s, 100° | - | - |
| 1778031599 | 22.22° C | 70% | 1015.8 hPa | 0 mm | 4.47 m/s, 97° | - | - |
| 1778031433 | 22.22° C | 70% | 1015.5 hPa | 0 mm | 4.47 m/s, 97° | - | - |
| 1778031304 | 22.78° C | 69% | 1015.8 hPa | 0 mm | 4.02 m/s, 88° | - | - |
| 1778031299 | 22.22° C | 70% | 1015.5 hPa | 0 mm | 4.47 m/s, 97° | - | - |
| 1778030999 | 22.78° C | 69% | 1015.7 hPa | 0 mm | 4.02 m/s, 88° | - | - |
| 1778030974 | 22.78° C | 69% | 1015.8 hPa | 0 mm | 4.02 m/s, 88° | - | - |
| 1778030699 | 22.78° C | 69% | 1015.8 hPa | 0 mm | 4.02 m/s, 88° | - | - |
| 1778030528 | 22.78° C | 68% | 1015.5 hPa | 0 mm | 4.47 m/s, 92° | - | - |
| 1778030440 | 22.78° C | 67% | 1015.6 hPa | 0 mm | 4.47 m/s, 82° | - | - |
| 1778030399 | 22.78° C | 68% | 1015.5 hPa | 0 mm | 4.47 m/s, 92° | - | - |
| 1778030231 | 22.78° C | 68% | 1015.4 hPa | 0 mm | 4.47 m/s, 93° | - | - |
| 1778030099 | 22.78° C | 68% | 1015.4 hPa | 0 mm | 4.47 m/s, 93° | - | - |
| 1778029799 | 22.78° C | 67% | 1015.6 hPa | 0 mm | 4.47 m/s, 82° | - | - |
| 1778029605 | 23.33° C | 67% | 1015.4 hPa | 0 mm | 4.47 m/s, 88° | - | - |
| 1778029499 | 23.33° C | 67% | 1015.4 hPa | 0 mm | 4.47 m/s, 88° | - | - |
| 1778029199 | 23.33° C | 66% | 1015.2 hPa | 0 mm | 4.47 m/s, 86° | - | - |
| 1778029094 | 23.33° C | 66% | 1015.1 hPa | 0 mm | 4.47 m/s, 83° | - | - |
| 1778028899 | 23.33° C | 66% | 1015.1 hPa | 0 mm | 4.47 m/s, 83° | - | - |
| 1778028758 | 23.89° C | 63% | 1014.7 hPa | 0 mm | 5.36 m/s, 88° | - | - |
| 1778028610 | 23.33° C | 64% | 1014.9 hPa | 0 mm | 4.47 m/s, 101° | - | - |
| 1778028599 | 23.33° C | 65% | 1015 hPa | 0 mm | 4.47 m/s, 99° | - | - |
| 1778028300 | 23.33° C | 64% | 1014.9 hPa | 0 mm | 4.47 m/s, 101° | - | - |
| 1778028000 | 23.89° C | 64% | 1014.8 hPa | 0 mm | 4.92 m/s, 87° | - | - |
| 1778027794 | 23.89° C | 64% | 1014.9 hPa | 0 mm | 4.47 m/s, 92° | - | - |
* Rain latest hour (hover to see other rain measurements)
** Current wind speed in m/s (hover to see current wind gust speed)